Weather Roundup
Issued by NWS Corpus Christi, TX

Home | Current Version | Previous Version | Text Only | Print | Product List | Glossary On
Versions: 1 2 3 4 5 6 7 8 9 10 11 12 13 14 15 16 17 18 19 20 21 22 23 24 25 26 27 28 29 30 31 32 33 34 35 36 37 38 39 40 41 42 43 44 45 46 47 48 49 50
000
ASUS44 KCRP 071310
HRRCRP

SOUTH TEXAS REGIONAL WEATHER ROUNDUP
NATIONAL WEATHER SERVICE CORPUS CHRISTI TX
700 AM CST WED DEC 07 2016


TXZ229>244-071400-
...CORPUS CHRISTI AREA OBSERVATIONS...

CITY           SKY/WX    TMP DP  RH WIND       PRES   REMARKS
CORPUS CHRISTI MOCLDY    53  52  96 NE12      30.02R
NAS CORPUS CHR PTCLDY    54  54 100 N10       30.01R
ROCKPORT         N/A    N/A N/A N/A MISG      30.04R
KINGSVILLE NAS MOCLDY    53  52  96 N7        30.02
ALICE          CLOUDY    51  49  92 N9        30.03R
ORANGE GROVE   CLOUDY    51  50  96 NE10      30.04S
FALFURRIAS     CLOUDY    55  51  86 N5        30.02R
$$

...VICTORIA AREA OBSERVATIONS...

CITY           SKY/WX    TMP DP  RH WIND       PRES   REMARKS
VICTORIA       CLOUDY    60  47  61 E9        30.06R
BEEVILLE       CLOUDY    49  49 100 NE8       30.04S
PLEASANTON     CLOUDY    46  44  94 N3        30.07S
SAN ANTONIO    MOCLDY    45  43  93 CALM      30.07R
$$

...LAREDO AREA OBSERVATIONS...

CITY           SKY/WX    TMP DP  RH WIND       PRES   REMARKS
LAREDO         CLOUDY    52  46  82 NE7       30.04R VSB 3/4
COTULLA        CLOUDY    50  45  83 NE10      30.04S
DEL RIO        CLOUDY    46  44  93 E7        30.03R
MCALLEN        CLOUDY    62  55  77 N6        30.00R
HEBBRONVILLE   CLOUDY    51  47  86 NE3       30.03S
$$

...OTHER TEXAS OBSERVATIONS...

CITY           SKY/WX    TMP DP  RH WIND       PRES   REMARKS
BROWNSVILLE    CLOUDY    62  61  96 NW3       29.98R FOG
HOUSTON        CLOUDY    49  47  93 NE9       30.07R
COL. STATION   CLOUDY    47  46  97 NE5       30.06R FOG
AUSTIN         PTCLDY    38  37  97 CALM      30.07R
WACO           CLOUDY    45  43  93 NE3       30.07R
FORT WORTH     MOCLDY    39  34  82 CALM      30.06R
WICHITA FALLS  CLOUDY    28  25  88 N5        30.07R
LUBBOCK        CLOUDY    30  27  88 E6        29.96R
EL PASO        CLOUDY    50  30  46 SW8       29.96R
$$

...MARINE OBSERVATIONS...

STATION/POSITION TIME  SKY/WX   TEMP    WIND        PRES    VSBY  WAVE   SWELL
                                AIR SEA DIR/SP/G                  HT/PER HT/PER
                 (UTC)          (F)     (DEG/KT/KT) (MB)    (MI)  (FT/S) (FT/S)
PORT ARANSAS     1200            60 64   40/ 14/ 15 1015.9R
BUOY 90 E PORT A 1150            68 76   40/ 10/ 12 1015.8          3/ 5   2/ 5
BUOY 45 SE BAFFI 1150            71 76   80/ 12/ 14 1014.6          4/ 6   2/ 6
BUOY 200 E PT IS 1150            74 77  140/  4/  8 1016.3          2/ 7   2/ 7
BUOY 15 E GALVES 1150            58 65   40/  8/ 10 1017.4          2/ 6   2/ 6
$$



USA.gov is the U.S. government's official web portal to all federal, state and local government web resources and services.